• In Uzbekistan
  • List of Countries
  • For 7 days
  • Water Temperature
  • Satellite Maps
  • Weather Map
  • Weather Widgets
  • user-avatar
    Login

    Hourly Weather Viroflay

    Today, 17 January, Wednesday

    Time Temperature Precipitation Wind Pressure Humidity
    00:00 +3°C° 0.6 mm 9 mps 737 mmHg 71%
    01:00 +2°C° 0.4 mm 9 mps 737 mmHg 70%
    02:00 +2°C° 0.4 mm 8 mps 738 mmHg 69%
    03:00 +2°C° 0.4 mm 8 mps 738 mmHg 67%
    04:00 +1°C° 0.3 mm 8 mps 739 mmHg 67%
    05:00 +1°C° 0.3 mm 8 mps 739 mmHg 67%
    06:00 +1°C° 0.3 mm 8 mps 740 mmHg 67%
    07:00 +2°C° 0.1 mm 7 mps 741 mmHg 66%
    08:00 +2°C° 0.1 mm 7 mps 742 mmHg 66%
    09:00 +2°C° 0.1 mm 6 mps 743 mmHg 65%
    10:00 +2°C° 0 mm 7 mps 744 mmHg 63%
    11:00 +2°C° 0 mm 8 mps 745 mmHg 61%
    12:00 +3°C° 0 mm 9 mps 745 mmHg 58%
    13:00 +4°C° 0.1 mm 8 mps 746 mmHg 60%
    14:00 +4°C° 0.1 mm 7 mps 746 mmHg 61%
    15:00 +4°C° 0.1 mm 7 mps 746 mmHg 62%
    16:00 +3°C° 0.1 mm 6 mps 747 mmHg 66%
    17:00 +3°C° 0.1 mm 6 mps 747 mmHg 70%
    18:00 +2°C° 0.1 mm 5 mps 747 mmHg 73%
    19:00 +2°C° 0 mm 5 mps 748 mmHg 75%
    20:00 +2°C° 0 mm 5 mps 748 mmHg 76%
    21:00 +3°C° 0 mm 6 mps 748 mmHg 77%
    22:00 +3°C° 0 mm 6 mps 747 mmHg 78%
    23:00 +3°C° 0 mm 7 mps 747 mmHg 79%

    Tomorrow, 18 January, Thursday

    Time Temperature Precipitation Wind Pressure Humidity
    00:00 +3°C° 0 mm 7 mps 746 mmHg 80%
    01:00 +2°C° 0.3 mm 8 mps 745 mmHg 80%
    02:00 +3°C° 0.3 mm 9 mps 744 mmHg 80%
    03:00 +4°C° 0.3 mm 11 mps 743 mmHg 81%
    04:00 +4°C° 0.7 mm 11 mps 743 mmHg 82%
    05:00 +6°C° 0.7 mm 11 mps 742 mmHg 82%
    06:00 +7°C° 0.7 mm 10 mps 741 mmHg 83%
    07:00 +7°C° 0.7 mm 10 mps 741 mmHg 83%
    08:00 +7°C° 0.7 mm 10 mps 741 mmHg 83%
    09:00 +8°C° 0.7 mm 10 mps 740 mmHg 83%
    10:00 +8°C° 0.7 mm 10 mps 740 mmHg 83%
    11:00 +8°C° 0.7 mm 10 mps 740 mmHg 83%
    12:00 +9°C° 0.7 mm 10 mps 740 mmHg 83%
    13:00 +10°C° 1.2 mm 9 mps 739 mmHg 84%
    14:00 +10°C° 1.2 mm 9 mps 739 mmHg 85%
    15:00 +10°C° 1.2 mm 8 mps 738 mmHg 86%
    16:00 +9°C° 0.4 mm 8 mps 739 mmHg 84%
    17:00 +9°C° 0.4 mm 7 mps 739 mmHg 82%
    18:00 +8°C° 0.4 mm 7 mps 739 mmHg 80%
    19:00 +8°C° 0.1 mm 7 mps 740 mmHg 78%
    20:00 +6°C° 0.1 mm 7 mps 741 mmHg 75%
    21:00 +5°C° 0.1 mm 6 mps 741 mmHg 73%
    22:00 +4°C° 0 mm 6 mps 742 mmHg 73%
    23:00 +5°C° 0 mm 5 mps 742 mmHg 74%

    Day after tomorrow, 19 January, Friday

    Time Temperature Precipitation Wind Pressure Humidity
    00:00 +4°C° 0 mm 4 mps 743 mmHg 74%
    01:00 +4°C° 0.1 mm 4 mps 743 mmHg 75%
    02:00 +4°C° 0.1 mm 4 mps 743 mmHg 76%
    03:00 +3°C° 0.1 mm 4 mps 743 mmHg 77%
    04:00 +3°C° 0.2 mm 4 mps 743 mmHg 77%
    05:00 +3°C° 0.2 mm 4 mps 743 mmHg 77%
    06:00 +3°C° 0.2 mm 4 mps 743 mmHg 77%
    07:00 +3°C° 0.1 mm 4 mps 744 mmHg 78%
    08:00 +2°C° 0.1 mm 5 mps 744 mmHg 78%
    09:00 +2°C° 0.1 mm 5 mps 744 mmHg 78%
    10:00 +3°C° 0.1 mm 5 mps 744 mmHg 73%
    11:00 +3°C° 0.1 mm 6 mps 744 mmHg 69%
    12:00 +4°C° 0.1 mm 6 mps 744 mmHg 64%
    13:00 +4°C° 0.2 mm 6 mps 744 mmHg 65%
    14:00 +4°C° 0.2 mm 6 mps 744 mmHg 66%
    15:00 +3°C° 0.2 mm 6 mps 744 mmHg 68%
    16:00 +3°C° 0.2 mm 6 mps 744 mmHg 70%
    17:00 +2°C° 0.2 mm 5 mps 744 mmHg 73%
    18:00 +2°C° 0.2 mm 5 mps 744 mmHg 76%
    19:00 +2°C° 0.2 mm 5 mps 744 mmHg 76%
    20:00 +2°C° 0.2 mm 5 mps 745 mmHg 76%
    21:00 +1°C° 0.2 mm 5 mps 745 mmHg 76%
    22:00 +1°C° 0.2 mm 5 mps 745 mmHg 77%
    23:00 +1°C° 0.2 mm 5 mps 745 mmHg 78%

    20 January, Saturday

    Time Temperature Precipitation Wind Pressure Humidity
    00:00 +1°C° 0.2 mm 5 mps 745 mmHg 79%
    01:00 +1°C° 0.2 mm 4 mps 745 mmHg 80%
    02:00 0°C° 0.2 mm 4 mps 745 mmHg 82%
    03:00 0°C° 0.2 mm 4 mps 746 mmHg 83%
    04:00 0°C° 0 mm 4 mps 745 mmHg 84%
    05:00 0°C° 0 mm 4 mps 745 mmHg 86%
    06:00 0°C° 0 mm 3 mps 745 mmHg 87%
    07:00 +1°C° 0.1 mm 3 mps 745 mmHg 87%
    08:00 +1°C° 0.1 mm 3 mps 745 mmHg 88%
    09:00 +1°C° 0.1 mm 3 mps 745 mmHg 88%
    10:00 +2°C° 0.4 mm 3 mps 744 mmHg 87%
    11:00 +2°C° 0.4 mm 3 mps 743 mmHg 87%
    12:00 +2°C° 0.4 mm 3 mps 743 mmHg 87%
    13:00 +3°C° 0.4 mm 2 mps 742 mmHg 88%
    14:00 +5°C° 0.4 mm 1 mps 742 mmHg 89%
    15:00 +4°C° 0.4 mm 0 mps 742 mmHg 90%
    16:00 +4°C° 0.1 mm 1 mps 743 mmHg 91%
    17:00 +4°C° 0.1 mm 1 mps 744 mmHg 92%
    18:00 +3°C° 0.1 mm 1 mps 744 mmHg 93%
    19:00 +3°C° 0 mm 1 mps 745 mmHg 93%
    20:00 +3°C° 0 mm 1 mps 746 mmHg 93%
    21:00 +2°C° 0 mm 1 mps 747 mmHg 93%
    22:00 +2°C° 0 mm 1 mps 747 mmHg 93%
    23:00 +2°C° 0 mm 1 mps 748 mmHg 92%

    21 January, Sunday

    Time Temperature Precipitation Wind Pressure Humidity
    00:00 +2°C° 0 mm 1 mps 748 mmHg 91%
    01:00 +2°C° 0 mm 1 mps 748 mmHg 91%
    02:00 +2°C° 0 mm 1 mps 749 mmHg 90%
    03:00 +2°C° 0 mm 1 mps 749 mmHg 89%
    04:00 +2°C° 0.1 mm 2 mps 749 mmHg 89%
    05:00 +2°C° 0.1 mm 2 mps 749 mmHg 89%
    06:00 +2°C° 0.1 mm 2 mps 749 mmHg 89%
    07:00 +1°C° 0.6 mm 3 mps 749 mmHg 89%
    08:00 +1°C° 0.6 mm 4 mps 749 mmHg 90%
    09:00 +1°C° 0.6 mm 4 mps 749 mmHg 90%
    10:00 +1°C° 1.3 mm 5 mps 748 mmHg 90%
    11:00 +1°C° 1.3 mm 5 mps 748 mmHg 91%
    12:00 +2°C° 1.3 mm 6 mps 748 mmHg 92%
    13:00 +3°C° 0.3 mm 5 mps 747 mmHg 93%
    14:00 +5°C° 0.3 mm 5 mps 747 mmHg 94%
    15:00 +6°C° 0.3 mm 5 mps 746 mmHg 95%
    16:00 +7°C° 0.2 mm 5 mps 746 mmHg 94%
    17:00 +8°C° 0.2 mm 6 mps 746 mmHg 93%
    18:00 +9°C° 0.2 mm 6 mps 746 mmHg 93%
    19:00 +9°C° 0.2 mm 7 mps 746 mmHg 92%
    20:00 +9°C° 0.2 mm 7 mps 746 mmHg 91%
    21:00 +9°C° 0.2 mm 7 mps 746 mmHg 90%
    22:00 +9°C° 0.5 mm 7 mps 746 mmHg 90%
    23:00 +9°C° 0.5 mm 7 mps 746 mmHg 90%

    22 January, Monday

    Time Temperature Precipitation Wind Pressure Humidity
    00:00 +10°C° 0.5 mm 7 mps 746 mmHg 89%
    01:00 +10°C° 0.3 mm 7 mps 747 mmHg 90%
    02:00 +10°C° 0.3 mm 6 mps 747 mmHg 91%
    03:00 +10°C° 0.3 mm 6 mps 747 mmHg 92%
    04:00 +10°C° 0.1 mm 5 mps 747 mmHg 93%
    05:00 +10°C° 0.1 mm 5 mps 747 mmHg 93%
    06:00 +10°C° 0.1 mm 4 mps 747 mmHg 94%
    07:00 +10°C° 0.2 mm 4 mps 747 mmHg 94%
    08:00 +10°C° 0.2 mm 3 mps 748 mmHg 95%
    09:00 +10°C° 0.2 mm 3 mps 748 mmHg 95%
    10:00 +10°C° 0.5 mm 2 mps 748 mmHg 95%
    11:00 +10°C° 0.5 mm 2 mps 748 mmHg 94%
    12:00 +10°C° 0.5 mm 2 mps 748 mmHg 94%
    13:00 +10°C° 0.3 mm 2 mps 748 mmHg 94%
    14:00 +10°C° 0.3 mm 2 mps 748 mmHg 95%
    15:00 +10°C° 0.3 mm 2 mps 748 mmHg 95%
    16:00 +10°C° 0.3 mm 3 mps 748 mmHg 94%
    17:00 +10°C° 0.3 mm 3 mps 748 mmHg 94%
    18:00 +11°C° 0.3 mm 4 mps 748 mmHg 94%
    19:00 +10°C° 0.1 mm 5 mps 748 mmHg 92%
    20:00 +10°C° 0.1 mm 5 mps 748 mmHg 91%
    21:00 +10°C° 0.1 mm 6 mps 748 mmHg 90%
    22:00 +10°C° 0 mm 6 mps 748 mmHg 89%
    23:00 +10°C° 0 mm 6 mps 748 mmHg 88%
    Show more